Regional Weather Roundup
Issued by NWS New Orleans/Baton Rouge, LA

Home | Current Version | Previous Version | Text Only | Print | Product List | Glossary On
Versions: 1 2 3 4 5 6 7 8 9 10 11 12 13 14 15 16 17 18 19 20 21 22 23 24 25 26 27 28 29 30 31 32 33 34 35 36 37 38 39 40 41 42 43 44 45 46 47 48 49 50
000
ASUS44 KLIX 182310
RWRLIX
NEW ORLEANS REGIONAL WEATHER ROUNDUP
NATIONAL WEATHER SERVICE NEW ORLEANS LA
600 PM CDT THU SEP 18 2014

NOTE: "FAIR" INDICATES FEW OR NO CLOUDS BELOW 12,000 FEET WITH NO
      SIGNIFICANT WEATHER AND/OR OBSTRUCTIONS TO VISIBILITY.
      SKY/WX - SKY CONDITION AND SIGNIFICANT WEATHER.
      TMP - AIR TEMPERATURE.     DP    - DEWPOINT TEMPERATURE.
      RH  - RELATIVE HUMIDITY.   PRES  - PRESSURE.
      HI  - HEAT INDEX.          WCI   - WIND CHILL INDEX.

*  THESE STATIONS ARE NOT NWS OR FAA STATIONS AND ARE NOT UNDER
   NWS QUALITY CONTROL.

LAZ038-040-048-061>063-065>067-069-190000-
SOUTHEAST LOUISIANA

CITY           SKY/WX    TMP DP  RH WIND       PRES   REMARKS
N.O. AUDUBON     N/A     79  71  77 MISG        N/A
N.O. INTL ARPT CLOUDY    81  68  64 S15G24    29.87R
N.O. LAKEFRONT CLOUDY    79  70  74 S14       29.87S
N.O. DOWNTOWN*   N/A     81  66  61 SE6       29.88R
SLIDELL        PTSUNNY   84  74  71 SE5       29.86F
BATON ROUGE    CLOUDY    81  73  76 W3        29.87R
BOOTHVILLE     CLOUDY    83  74  74 S8        29.88R
BELLE CHASSE   LGT RAIN  75  67  76 CALM      29.87S
BOGALUSA*        N/A     81  68  64 CALM      29.89F
GALLIANO*      NOT AVBL
NEW ROADS*       N/A     82  74  77 N3        29.87S
GONZALES*      TSTM      73  73 100 NW3       29.87S
HAMMOND*       CLOUDY    84  70  61 S6        29.89R
HOUMA*         PTSUNNY   82  64  54 CALM      29.87S
PORT FOURCHON* PTCLDY    81  75  83 SW8       29.90S

$$

MSZ070-080>082-190000-
SOUTHERN MISSISSIPPI

CITY           SKY/WX    TMP DP  RH WIND       PRES   REMARKS
MCCOMB         CLOUDY    83  72  69 CALM      29.89S
GULFPORT       CLOUDY    84  73  69 SE8       29.88R
BILOXI         CLOUDY    84  73  68 SE5       29.89R
PASCAGOULA     CLOUDY    81  74  79 NE10      29.89R HAZE
STENNIS ARPT*  MOSUNNY   84  70  61 CALM      29.88R

$$

COASTAL OBSERVATIONS
LAKE AND NEARSHORE STATIONS

STATION/POSITION TIME  TEMP    WIND        PRES    WAVE
                       AIR SEA DIR/SP/G            HT/PER
                 (UTC) (F)     (DEG/KT/KT) (MB)    (FT/S)
PASCAGOULA       2300   84     120/  3/  5 1011.8
WAVELAND YACHT   2300   83     130/  3/  6 1011.2
GRAND ISLE       2300   83 87  190/  3/  7 1012.3
SOUTHWEST PASS   2300   83 92  160/  6/  9 1012.0
NEW CANAL        2300   81 83  180/  7/ 11 1012.0
SHELL BEACH      2300   82 82  210/  8/ 10 1011.4

OFFSHORE STATIONS

STATION/POSITION TIME  TEMP    WIND        PRES    WAVE
                       AIR SEA DIR/SP/G            HT/PER
                 (UTC) (F)     (DEG/KT/KT) (MB)    (FT/S)
64 S DAUPHIN ISL 2201   83 86  160/  8/ 10 1012.1    1

$$



USA.gov is the U.S. government's official web portal to all federal, state and local government web resources and services.